Location: Sungai Anya
(2.6167°N, 114.0500°E)
Time: 11:54:53
(UTC+00:00)

FALCON 9 DEB - Pass Details

Date: 19 October 2021
Orbit: 417 x 427 km, 53.0° (Epoch: 28 November)

Event Time Altitude Azimuth Distance (km) Brightness Sun altitude
Rises 10:58:20 0° 211° (SSW) 2,385 7.5 -12.7°
Reaches altitude 10° 11:00:26 10° 209° (SSW) 1,519 6.4 -13.2°
Maximum altitude 11:03:50 72° 124° (SE) 451 3.0 -14.0°
Enters shadow 11:05:52 22° 43° (NE) 977 4.4 -14.5°
